PAC8575 LOWW-LIMC

Flight info

Callsign PAC8575
Flight time 1h 1m
Altitude 32000
Route N0484F320 OSPEN5B OSPEN DCT ABRUK DCT SETAL DCT DETSA/N0482F330 DCT RENTA DCT ATPED DCT LUSIL DCT EVRIP EVRIP3E
Aircraft B748/H-SADE1E2E3FGHIJ1J2J3J4J5J7M1M3P2RWXYZ/LB1D1G1

Departure

Time 2026-05-04 14:15
Airport Vienna International Airport (LOWW)

Arrival

Time 2026-05-04 15:17
Airport Milan Malpensa International Airport (LIMC)
Time Latitude Longitude Altitude Speed Heading
2026-05-04 12:35 48.12111 16.55047 614 ft 0 kts 26°
2026-05-04 14:02 48.12102 16.55040 613 ft 4 kts 24°
2026-05-04 14:02 48.12077 16.55025 613 ft 4 kts 22°
2026-05-04 14:02 48.12056 16.55010 613 ft 4 kts 49°
2026-05-04 14:03 48.12045 16.54986 613 ft 4 kts 74°
2026-05-04 14:03 48.12044 16.54957 613 ft 4 kts 112°
2026-05-04 14:03 48.12055 16.54922 613 ft 3 kts 116°
2026-05-04 14:03 48.12057 16.54918 613 ft 0 kts 116°
2026-05-04 14:08 48.12038 16.54976 613 ft 8 kts 116°
2026-05-04 14:08 48.12009 16.55063 613 ft 11 kts 116°
2026-05-04 14:09 48.11938 16.55281 613 ft 16 kts 116°
2026-05-04 14:09 48.11891 16.55427 613 ft 15 kts 105°
2026-05-04 14:10 48.11803 16.55737 613 ft 17 kts 116°
2026-05-04 14:10 48.11739 16.55929 613 ft 23 kts 117°
2026-05-04 14:10 48.11670 16.56138 613 ft 23 kts 114°
2026-05-04 14:10 48.11612 16.56320 613 ft 18 kts 116°
2026-05-04 14:11 48.11557 16.56485 613 ft 17 kts 116°
2026-05-04 14:11 48.11451 16.56815 613 ft 18 kts 116°
2026-05-04 14:11 48.11397 16.56982 613 ft 17 kts 116°
2026-05-04 14:12 48.11344 16.57139 613 ft 16 kts 116°
2026-05-04 14:12 48.11295 16.57286 613 ft 15 kts 116°
2026-05-04 14:12 48.11193 16.57606 613 ft 17 kts 116°
2026-05-04 14:13 48.11143 16.57758 613 ft 16 kts 116°
2026-05-04 14:13 48.11096 16.57903 613 ft 15 kts 116°
2026-05-04 14:13 48.11052 16.58038 613 ft 14 kts 116°
2026-05-04 14:13 48.11004 16.58158 613 ft 13 kts 127°
2026-05-04 14:14 48.10969 16.58243 613 ft 6 kts 149°
2026-05-04 14:14 48.10944 16.58255 613 ft 0 kts 164°
2026-05-04 14:14 48.10930 16.58261 613 ft 17 kts 164°
2026-05-04 14:15 48.09746 16.58764 615 ft 157 kts 164°
2026-05-04 14:15 48.07396 16.59659 2095 ft 170 kts 167°
2026-05-04 14:16 48.04943 16.59275 2954 ft 196 kts 202°
2026-05-04 14:16 48.03808 16.58114 3423 ft 199 kts 216°
2026-05-04 14:17 48.01827 16.54983 4104 ft 224 kts 227°
2026-05-04 14:17 48.00817 16.53123 4386 ft 238 kts 229°
2026-05-04 14:17 47.98503 16.49013 4840 ft 275 kts 228°
2026-05-04 14:18 47.97235 16.46811 4944 ft 284 kts 228°
2026-05-04 14:18 47.95375 16.41508 6218 ft 290 kts 250°
2026-05-04 14:19 47.94330 16.35661 7932 ft 296 kts 255°
2026-05-04 14:19 47.93850 16.32666 8729 ft 298 kts 255°
2026-05-04 14:19 47.93336 16.29637 9463 ft 302 kts 254°
2026-05-04 14:19 47.92802 16.26611 10355 ft 300 kts 253°
2026-05-04 14:20 47.92256 16.23562 10914 ft 312 kts 252°
2026-05-04 14:20 47.91662 16.20338 11168 ft 333 kts 252°
2026-05-04 14:20 47.91028 16.16894 11344 ft 356 kts 252°
2026-05-04 14:21 47.89651 16.09438 12056 ft 389 kts 252°
2026-05-04 14:21 47.88926 16.05483 12884 ft 393 kts 252°
2026-05-04 14:21 47.88200 16.01549 13699 ft 395 kts 252°
2026-05-04 14:21 47.87121 15.97802 14457 ft 395 kts 236°
2026-05-04 14:22 47.85403 15.94717 15328 ft 393 kts 225°
2026-05-04 14:22 47.83372 15.91868 15963 ft 399 kts 221°
2026-05-04 14:22 47.81245 15.89268 16573 ft 405 kts 218°
2026-05-04 14:22 47.78964 15.86724 17168 ft 412 kts 217°
2026-05-04 14:23 47.74543 15.81880 18273 ft 424 kts 217°
2026-05-04 14:23 47.72185 15.79221 18940 ft 425 kts 218°
2026-05-04 14:23 47.69835 15.76554 19655 ft 427 kts 218°
2026-05-04 14:24 47.67463 15.73876 20296 ft 431 kts 217°
2026-05-04 14:24 47.65063 15.71183 20822 ft 436 kts 217°
2026-05-04 14:24 47.62620 15.68448 21348 ft 442 kts 217°
2026-05-04 14:24 47.60153 15.65694 21914 ft 447 kts 217°
2026-05-04 14:25 47.57652 15.62904 22387 ft 453 kts 217°
2026-05-04 14:25 47.52551 15.57218 23304 ft 465 kts 218°
2026-05-04 14:25 47.50211 15.53896 23768 ft 469 kts 232°
2026-05-04 14:26 47.48534 15.49750 24291 ft 472 kts 244°
2026-05-04 14:26 47.47255 15.45276 24871 ft 474 kts 249°
2026-05-04 14:26 47.46514 15.42229 25193 ft 477 kts 251°
2026-05-04 14:26 47.45229 15.35940 25872 ft 480 kts 254°
2026-05-04 14:27 47.44337 15.31162 26297 ft 484 kts 255°
2026-05-04 14:27 47.43730 15.27990 26575 ft 486 kts 254°
2026-05-04 14:27 47.42790 15.23189 27029 ft 487 kts 254°
2026-05-04 14:27 47.41522 15.16792 27523 ft 491 kts 254°
2026-05-04 14:28 47.40557 15.11947 27942 ft 492 kts 254°
2026-05-04 14:28 47.39596 15.07121 28467 ft 490 kts 254°
2026-05-04 14:28 47.38955 15.03902 28829 ft 488 kts 254°
2026-05-04 14:28 47.37997 14.99090 29368 ft 485 kts 254°
2026-05-04 14:29 47.36081 14.89548 30188 ft 483 kts 254°
2026-05-04 14:29 47.34180 14.80137 31046 ft 479 kts 254°
2026-05-04 14:30 47.33232 14.75456 31460 ft 477 kts 254°
2026-05-04 14:30 47.32285 14.70760 31771 ft 477 kts 255°
2026-05-04 14:30 47.30465 14.61372 31986 ft 475 kts 254°
2026-05-04 14:31 47.29522 14.56707 31993 ft 475 kts 254°
2026-05-04 14:32 47.25689 14.38081 32000 ft 475 kts 254°
2026-05-04 14:32 47.23767 14.28780 31992 ft 475 kts 254°
2026-05-04 14:33 47.21835 14.19477 31987 ft 475 kts 253°
2026-05-04 14:33 47.19902 14.10272 31985 ft 475 kts 253°
2026-05-04 14:34 47.17934 14.00962 31994 ft 475 kts 253°
2026-05-04 14:34 47.15968 13.91704 31995 ft 473 kts 253°
2026-05-04 14:35 47.14002 13.82486 32000 ft 473 kts 253°
2026-05-04 14:35 47.12065 13.73257 31995 ft 473 kts 253°
2026-05-04 14:36 47.10150 13.64020 31993 ft 473 kts 253°
2026-05-04 14:36 47.08198 13.54804 31993 ft 473 kts 253°
2026-05-04 14:37 47.06230 13.45604 31992 ft 473 kts 253°
2026-05-04 14:37 47.04249 13.36398 31992 ft 473 kts 253°
2026-05-04 14:38 47.02260 13.27211 32001 ft 473 kts 253°
2026-05-04 14:38 47.00265 13.18037 32015 ft 472 kts 252°
2026-05-04 14:39 46.98265 13.08879 32034 ft 471 kts 252°
2026-05-04 14:39 46.96263 12.99751 32048 ft 471 kts 252°
2026-05-04 14:40 46.93244 12.86062 32066 ft 471 kts 252°
2026-05-04 14:40 46.91221 12.76937 32078 ft 471 kts 252°
2026-05-04 14:41 46.89240 12.67867 32092 ft 471 kts 252°
2026-05-04 14:42 46.85164 12.49705 32113 ft 470 kts 251°
2026-05-04 14:42 46.83101 12.40634 32129 ft 470 kts 251°
2026-05-04 14:43 46.81040 12.31582 32132 ft 470 kts 251°
2026-05-04 14:43 46.78531 12.22806 32137 ft 469 kts 244°
2026-05-04 14:44 46.75570 12.14314 32141 ft 469 kts 243°
2026-05-04 14:44 46.73074 12.07217 32140 ft 469 kts 243°
2026-05-04 14:45 46.70135 11.98799 32142 ft 469 kts 243°
2026-05-04 14:45 46.67168 11.90291 32144 ft 468 kts 243°
2026-05-04 14:46 46.64245 11.81894 32148 ft 468 kts 243°
2026-05-04 14:46 46.61342 11.73377 32143 ft 468 kts 243°
2026-05-04 14:47 46.58423 11.64957 32099 ft 468 kts 243°
2026-05-04 14:47 46.56955 11.60748 31958 ft 465 kts 243°
2026-05-04 14:47 46.55489 11.56559 31491 ft 466 kts 243°
2026-05-04 14:48 46.54015 11.52353 30916 ft 469 kts 243°
2026-05-04 14:48 46.52527 11.48118 30380 ft 471 kts 243°
2026-05-04 14:48 46.51035 11.43878 30232 ft 470 kts 243°
2026-05-04 14:48 46.49545 11.39650 30149 ft 470 kts 243°
2026-05-04 14:49 46.46558 11.31196 30027 ft 471 kts 243°
2026-05-04 14:49 46.43595 11.22723 30003 ft 471 kts 243°
2026-05-04 14:50 46.40597 11.14272 30033 ft 471 kts 242°
2026-05-04 14:50 46.37569 11.05830 30079 ft 472 kts 242°
2026-05-04 14:51 46.34531 10.97388 30111 ft 472 kts 242°
2026-05-04 14:51 46.31513 10.89008 30137 ft 472 kts 242°
2026-05-04 14:52 46.28536 10.80511 30149 ft 474 kts 243°
2026-05-04 14:52 46.25606 10.71992 30146 ft 474 kts 242°
2026-05-04 14:53 46.22626 10.63487 30144 ft 475 kts 242°
2026-05-04 14:53 46.21127 10.59230 29973 ft 478 kts 242°
2026-05-04 14:53 46.19626 10.54965 29900 ft 476 kts 242°
2026-05-04 14:54 46.16631 10.46468 29523 ft 472 kts 242°
2026-05-04 14:54 46.15142 10.42241 28783 ft 479 kts 242°
2026-05-04 14:54 46.13632 10.37898 28038 ft 485 kts 242°
2026-05-04 14:55 46.12100 10.33548 27483 ft 487 kts 242°
2026-05-04 14:55 46.10564 10.29221 27253 ft 486 kts 242°
2026-05-04 14:55 46.09016 10.24871 27185 ft 487 kts 242°
2026-05-04 14:55 46.07471 10.20539 27122 ft 485 kts 242°
2026-05-04 14:56 46.05937 10.16238 26850 ft 477 kts 242°
2026-05-04 14:56 46.04432 10.12015 26187 ft 472 kts 242°
2026-05-04 14:56 46.02969 10.07801 25422 ft 470 kts 243°
2026-05-04 14:56 46.01568 10.03603 25174 ft 457 kts 243°
2026-05-04 14:57 46.00228 9.99603 25091 ft 441 kts 243°
2026-05-04 14:57 45.98931 9.95710 24999 ft 422 kts 244°
2026-05-04 14:57 45.97705 9.91961 24901 ft 402 kts 243°
2026-05-04 14:57 45.96526 9.88423 24810 ft 383 kts 243°
2026-05-04 14:58 45.95390 9.85058 24717 ft 366 kts 243°
2026-05-04 14:58 45.94300 9.81847 24607 ft 351 kts 243°
2026-05-04 14:58 45.93242 9.78743 24423 ft 342 kts 243°
2026-05-04 14:58 45.92204 9.75701 24032 ft 336 kts 243°
2026-05-04 14:59 45.91181 9.72708 23528 ft 333 kts 243°
2026-05-04 14:59 45.90161 9.69729 22978 ft 331 kts 243°
2026-05-04 14:59 45.88147 9.63843 21949 ft 327 kts 242°
2026-05-04 15:00 45.87149 9.60930 21444 ft 324 kts 242°
2026-05-04 15:00 45.86170 9.58073 21237 ft 316 kts 242°
2026-05-04 15:00 45.85201 9.55240 20942 ft 314 kts 243°
2026-05-04 15:01 45.83571 9.50453 20615 ft 311 kts 243°
2026-05-04 15:01 45.82617 9.47671 20166 ft 312 kts 242°
2026-05-04 15:01 45.81657 9.44886 19762 ft 311 kts 242°
2026-05-04 15:01 45.80702 9.42121 19353 ft 311 kts 242°
2026-05-04 15:02 45.79742 9.39348 18942 ft 310 kts 242°
2026-05-04 15:02 45.78805 9.36641 18553 ft 309 kts 242°
2026-05-04 15:02 45.77852 9.33891 18135 ft 309 kts 242°
2026-05-04 15:02 45.76893 9.31123 17782 ft 307 kts 242°
2026-05-04 15:03 45.75964 9.28417 17413 ft 306 kts 242°
2026-05-04 15:03 45.75028 9.25695 17052 ft 303 kts 242°
2026-05-04 15:03 45.74100 9.23014 16595 ft 300 kts 242°
2026-05-04 15:03 45.73168 9.20337 16069 ft 299 kts 242°
2026-05-04 15:04 45.72246 9.17691 15588 ft 297 kts 242°
2026-05-04 15:04 45.71326 9.15051 15094 ft 295 kts 242°
2026-05-04 15:04 45.70412 9.12432 14611 ft 293 kts 242°
2026-05-04 15:04 45.69514 9.09823 14148 ft 293 kts 242°
2026-05-04 15:05 45.68594 9.07208 13619 ft 292 kts 242°
2026-05-04 15:05 45.67704 9.04646 13287 ft 281 kts 242°
2026-05-04 15:05 45.66849 9.02201 13158 ft 268 kts 241°
2026-05-04 15:05 45.66022 8.99838 13013 ft 264 kts 242°
2026-05-04 15:06 45.65208 8.97508 12641 ft 265 kts 242°
2026-05-04 15:06 45.64366 8.95119 12255 ft 271 kts 241°
2026-05-04 15:06 45.63527 8.92733 11910 ft 265 kts 241°
2026-05-04 15:07 45.61230 8.89211 11147 ft 242 kts 199°
2026-05-04 15:07 45.59584 8.88769 10722 ft 240 kts 189°
2026-05-04 15:07 45.57910 8.88665 10097 ft 241 kts 178°
2026-05-04 15:07 45.56240 8.88970 9808 ft 248 kts 171°
2026-05-04 15:08 45.54524 8.89484 9448 ft 252 kts 168°
2026-05-04 15:08 45.52828 8.90016 9065 ft 247 kts 168°
2026-05-04 15:08 45.51150 8.90542 8697 ft 248 kts 167°
2026-05-04 15:08 45.49457 8.91066 8321 ft 247 kts 168°
2026-05-04 15:09 45.47785 8.91521 7949 ft 242 kts 169°
2026-05-04 15:09 45.46129 8.91957 7589 ft 244 kts 169°
2026-05-04 15:09 45.44461 8.92403 7224 ft 242 kts 169°
2026-05-04 15:10 45.41160 8.93174 6501 ft 240 kts 181°
2026-05-04 15:10 45.39589 8.92480 6141 ft 240 kts 211°
2026-05-04 15:10 45.38024 8.89266 5586 ft 240 kts 248°
2026-05-04 15:11 45.37574 8.86163 5300 ft 243 kts 259°
2026-05-04 15:11 45.37353 8.83816 5086 ft 234 kts 265°
2026-05-04 15:11 45.37690 8.81655 4872 ft 220 kts 297°
2026-05-04 15:11 45.38728 8.80199 4616 ft 206 kts 324°
2026-05-04 15:12 45.40020 8.79368 4341 ft 205 kts 338°
2026-05-04 15:12 45.41406 8.78854 4155 ft 206 kts 347°
2026-05-04 15:12 45.42357 8.78651 4055 ft 202 kts 352°
2026-05-04 15:12 45.43740 8.78526 4038 ft 197 kts 354°
2026-05-04 15:13 45.45091 8.78276 4001 ft 195 kts 351°
2026-05-04 15:13 45.46418 8.77929 3754 ft 195 kts 349°
2026-05-04 15:13 45.47740 8.77556 3491 ft 192 kts 349°
2026-05-04 15:13 45.49015 8.77200 3272 ft 183 kts 350°
2026-05-04 15:14 45.50254 8.76858 3009 ft 180 kts 350°
2026-05-04 15:14 45.51464 8.76525 2763 ft 177 kts 350°
2026-05-04 15:14 45.52674 8.76192 2529 ft 177 kts 349°
2026-05-04 15:14 45.53878 8.75861 2294 ft 176 kts 349°
2026-05-04 15:15 45.55080 8.75530 2059 ft 175 kts 349°
2026-05-04 15:15 45.56284 8.75199 1823 ft 177 kts 348°
2026-05-04 15:15 45.57493 8.74865 1592 ft 177 kts 348°
2026-05-04 15:16 45.59897 8.74203 1119 ft 176 kts 347°
2026-05-04 15:16 45.61095 8.73872 889 ft 175 kts 348°
2026-05-04 15:16 45.63452 8.73224 781 ft 137 kts 348°
2026-05-04 15:17 45.64040 8.73059 781 ft 48 kts 349°
2026-05-04 15:17 45.64272 8.72971 780 ft 14 kts 304°
2026-05-04 15:17 45.64323 8.72863 780 ft 13 kts 304°
2026-05-04 15:18 45.64372 8.72760 780 ft 12 kts 304°
2026-05-04 15:18 45.64345 8.72675 780 ft 12 kts 182°
2026-05-04 15:18 45.64254 8.72694 780 ft 14 kts 169°
2026-05-04 15:19 45.64072 8.72744 780 ft 13 kts 169°
2026-05-04 15:19 45.63986 8.72768 780 ft 12 kts 169°
2026-05-04 15:19 45.63925 8.72604 780 ft 12 kts 224°
2026-05-04 15:20 45.63848 8.72588 780 ft 14 kts 170°
2026-05-04 15:20 45.63754 8.72611 780 ft 13 kts 169°
2026-05-04 15:20 45.63638 8.72645 780 ft 19 kts 168°
2026-05-04 15:20 45.63497 8.72683 780 ft 20 kts 169°
2026-05-04 15:21 45.63366 8.72641 780 ft 20 kts 214°
2026-05-04 15:21 45.63255 8.72534 780 ft 19 kts 214°
2026-05-04 15:21 45.63054 8.72324 780 ft 17 kts 236°
2026-05-04 15:22 45.63022 8.72167 780 ft 16 kts 258°
2026-05-04 15:22 45.62996 8.72048 780 ft 12 kts 212°
2026-05-04 15:22 45.62791 8.72091 780 ft 18 kts 169°
2026-05-04 15:23 45.62662 8.72126 780 ft 20 kts 169°
2026-05-04 15:23 45.62529 8.72163 780 ft 19 kts 169°
2026-05-04 15:23 45.62400 8.72199 780 ft 18 kts 169°
2026-05-04 15:23 45.62279 8.72232 780 ft 17 kts 169°
2026-05-04 15:24 45.62034 8.72301 780 ft 18 kts 169°
2026-05-04 15:24 45.61802 8.72365 780 ft 16 kts 169°
2026-05-04 15:25 45.61696 8.72394 780 ft 15 kts 169°
2026-05-04 15:25 45.61596 8.72421 780 ft 14 kts 168°
2026-05-04 15:25 45.61503 8.72448 780 ft 13 kts 168°
2026-05-04 15:26 45.61330 8.72488 780 ft 15 kts 168°
2026-05-04 15:26 45.61234 8.72517 780 ft 14 kts 167°
2026-05-04 15:26 45.61121 8.72431 780 ft 13 kts 258°
2026-05-04 15:27 45.61103 8.72309 780 ft 12 kts 258°
2026-05-04 15:27 45.61212 8.72218 780 ft 13 kts 349°
2026-05-04 15:28 45.61421 8.72160 780 ft 15 kts 349°
2026-05-04 15:28 45.61516 8.72134 780 ft 11 kts 350°
2026-05-04 15:28 45.61567 8.72036 780 ft 6 kts 261°
2026-05-04 15:29 45.61562 8.71996 780 ft 0 kts 259°
2026-05-04 15:30 45.61561 8.71990 780 ft 0 kts 259°